Starlink 35547

operational
NORAD ID: 66119 Int'l Des: 2025-237 Owner: SPXS Country: US Constellation: starlink
LEOCIRCULAR

Starlink 35547について

説明を読み込み中...

リアルタイム位置

3D地球を読み込み中...

次回通過

高度履歴

Altitude vs Time

uPlot chart will show altitude changes over time

軌道要素

1 66119U 25237F 25351.22485052 .00038761 00000-0 97306-3 0 9999
2 66119 53.1609 66.2958 0001297 71.5309 288.5837 15.39652302 9937
Epoch: Dec 17, 2025 • Age: 9 hours

現在のステータス

高度 466.4 km
速度 7.63 km/s
衛星直下点 -53.22°S, 37.34°E
打ち上げ日 Oct 22, 2025
運用期間 0.1 years
タイプ internet

技術仕様

分類 Payload
質量 575.00 kg
乾燥質量 530.00 kg
総質量 575.00 kg
長さ 0.30 m
直径 4.10 m
スパン 29.00 m
形状 Box + pan
製造者 SPXS
バスタイプ Starlink V2MO
フェーズステータス In Orbit
所有者/国 SPXS/US

大規模コンステレーション

Loading constellations...